Location: Newark
(42.7133°N, 87.7910°W)
Time: 09:20:06
(UTC+00:00)

Tiros 1 - Pass Details

Date: 25 September 2019
Orbit: 630 x 664 km, 48.4° (Epoch: 18 October)

Event Time Altitude Azimuth Distance (km) Brightness Sun altitude
Rises 19:27:12 0° 280° (W) 2,972 10.8 40.4°
Reaches altitude 10° 19:29:40 10° 287° (WNW) 2,055 10.1 40.1°
Maximum altitude 19:34:09 41° 358° (N) 939 8.0 39.7°
Drops below altitude 10° 19:38:35 10° 69° (ENE) 2,034 9.4 39.1°
Sets 19:41:01 0° 77° (ENE) 2,937 10.2 38.9°
